User: anonymous   Login
Location: Peebles
(55.6412°N, 3.1714°W)
Time: 13:33:19
(UTC+00:00)
Language:

FENGYUN 1C DEB - Orbit

View from above orbital plane
View from above orbital plane
View from above satellite
View from above satellite

Ground track
Ground track

The orbit data is extracted from the following two-line orbital elements,

1 31257U 99025BMP 23035.52139664  .00005339  00000-0  30669-2 0  9998
2 31257  98.7473 143.5014 0127557 162.7499 197.8065 14.05672630812338
Epoch (UTC): 04 February 2023 12:30:48
Eccentricity: 0.0127557
inclination: 98.7473°
perigee height: 782 km
apogee height: 967 km
right ascension of ascending node: 143.5014°
argument of perigee: 162.7499°
revolutions per day: 14.05672630
mean anomaly at epoch: 197.8065°
orbit number at epoch: 81233

The dashed part of the orbit path shows where the satellite is in the earth's shadow,  

DLR